When you browse on this site, cookies collect data to enhance your experience and personalize the content and advertising you see.
Visit our Privacy Policy to learn more. By continuing to use the site, you agree to this use of cookies and data.
  • In France
  • List of Countries
  • For 7 days
  • Water Temperature
  • Weather Map
  • Weather Widgets
  • user-avatar
    Login

    Hourly Weather Batina

    Today, 21 February, Friday

    Time Temperature Precipitation Wind Pressure Humidity
    00:00 +8°C° 0 mm 1 mps 674 mmHg 69%
    01:00 +7°C° 0 mm 1 mps 674 mmHg 69%
    02:00 +7°C° 0 mm 1 mps 674 mmHg 69%
    03:00 +7°C° 0 mm 1 mps 674 mmHg 69%
    04:00 +7°C° 0 mm 1 mps 674 mmHg 69%
    05:00 +7°C° 0 mm 1 mps 674 mmHg 68%
    06:00 +6°C° 0 mm 1 mps 674 mmHg 67%
    13:00 +16°C° 0 mm 2 mps 677 mmHg 29%
    14:00 +16°C° 0 mm 2 mps 677 mmHg 28%
    15:00 +16°C° 0 mm 3 mps 677 mmHg 27%
    16:00 +15°C° 0 mm 2 mps 676 mmHg 34%
    17:00 +13°C° 0 mm 2 mps 676 mmHg 40%
    18:00 +10°C° 0 mm 2 mps 676 mmHg 47%
    19:00 +10°C° 0 mm 1 mps 676 mmHg 51%
    20:00 +10°C° 0 mm 1 mps 676 mmHg 56%
    21:00 +9°C° 0 mm 1 mps 676 mmHg 60%
    22:00 +8°C° 0 mm 1 mps 676 mmHg 62%
    23:00 +8°C° 0 mm 1 mps 676 mmHg 63%

    Tomorrow, 22 February, Saturday

    Time Temperature Precipitation Wind Pressure Humidity
    00:00 +8°C° 0 mm 1 mps 676 mmHg 65%
    01:00 +7°C° 0 mm 1 mps 675 mmHg 66%
    02:00 +7°C° 0 mm 1 mps 675 mmHg 67%
    03:00 +6°C° 0 mm 1 mps 675 mmHg 68%
    04:00 +6°C° 0 mm 1 mps 675 mmHg 67%
    05:00 +6°C° 0 mm 1 mps 675 mmHg 66%
    06:00 +5°C° 0 mm 1 mps 675 mmHg 65%
    07:00 +7°C° 0 mm 1 mps 677 mmHg 56%
    08:00 +9°C° 0 mm 1 mps 678 mmHg 47%
    09:00 +12°C° 0 mm 1 mps 679 mmHg 37%
    10:00 +13°C° 0 mm 1 mps 679 mmHg 32%
    11:00 +14°C° 0 mm 1 mps 679 mmHg 27%
    12:00 +15°C° 0 mm 1 mps 679 mmHg 22%
    13:00 +16°C° 0 mm 2 mps 679 mmHg 21%
    14:00 +16°C° 0 mm 3 mps 679 mmHg 21%
    15:00 +16°C° 0 mm 3 mps 679 mmHg 21%
    16:00 +13°C° 0 mm 3 mps 679 mmHg 28%
    17:00 +13°C° 0 mm 2 mps 678 mmHg 34%
    18:00 +10°C° 0 mm 2 mps 678 mmHg 41%
    19:00 +9°C° 0 mm 2 mps 678 mmHg 47%
    20:00 +8°C° 0 mm 2 mps 678 mmHg 52%
    21:00 +7°C° 0 mm 2 mps 678 mmHg 58%
    22:00 +8°C° 0 mm 1 mps 678 mmHg 59%
    23:00 +7°C° 0 mm 1 mps 678 mmHg 61%

    Day after tomorrow, 23 February, Sunday

    Time Temperature Precipitation Wind Pressure Humidity
    00:00 +7°C° 0 mm 1 mps 678 mmHg 63%
    01:00 +7°C° 0 mm 1 mps 678 mmHg 62%
    02:00 +5°C° 0 mm 0 mps 678 mmHg 61%
    03:00 +5°C° 0 mm 0 mps 678 mmHg 60%
    04:00 +5°C° 0 mm 0 mps 678 mmHg 60%
    05:00 +4°C° 0 mm 0 mps 678 mmHg 60%
    06:00 +5°C° 0 mm 1 mps 678 mmHg 59%
    07:00 +7°C° 0 mm 1 mps 679 mmHg 53%
    08:00 +10°C° 0 mm 1 mps 680 mmHg 46%
    09:00 +12°C° 0 mm 2 mps 681 mmHg 39%
    10:00 +13°C° 0 mm 2 mps 681 mmHg 36%
    11:00 +14°C° 0 mm 2 mps 681 mmHg 34%
    12:00 +14°C° 0 mm 3 mps 681 mmHg 32%
    13:00 +16°C° 0 mm 3 mps 681 mmHg 31%
    14:00 +16°C° 0 mm 2 mps 681 mmHg 31%
    15:00 +16°C° 0 mm 2 mps 680 mmHg 31%
    16:00 +15°C° 0 mm 2 mps 680 mmHg 38%
    17:00 +13°C° 0 mm 1 mps 679 mmHg 44%
    18:00 +11°C° 0 mm 1 mps 679 mmHg 51%
    19:00 +11°C° 0 mm 1 mps 679 mmHg 54%
    20:00 +10°C° 0 mm 1 mps 679 mmHg 56%
    21:00 +8°C° 0 mm 0 mps 679 mmHg 59%
    22:00 +9°C° 0 mm 1 mps 679 mmHg 60%
    23:00 +9°C° 0 mm 1 mps 678 mmHg 60%

    24 February, Monday

    Time Temperature Precipitation Wind Pressure Humidity
    00:00 +9°C° 0 mm 1 mps 678 mmHg 60%
    01:00 +8°C° 0 mm 1 mps 678 mmHg 61%
    02:00 +8°C° 0 mm 1 mps 678 mmHg 61%
    03:00 +8°C° 0 mm 1 mps 677 mmHg 62%
    04:00 +7°C° 0 mm 1 mps 677 mmHg 62%
    05:00 +7°C° 0 mm 1 mps 677 mmHg 61%
    06:00 +7°C° 0 mm 1 mps 677 mmHg 61%
    07:00 +9°C° 0 mm 1 mps 677 mmHg 52%
    08:00 +12°C° 0 mm 1 mps 678 mmHg 43%
    09:00 +14°C° 0 mm 1 mps 679 mmHg 34%
    10:00 +16°C° 0 mm 1 mps 679 mmHg 32%
    11:00 +17°C° 0 mm 2 mps 679 mmHg 29%
    12:00 +18°C° 0 mm 2 mps 679 mmHg 26%
    13:00 +19°C° 0 mm 2 mps 678 mmHg 26%
    14:00 +19°C° 0 mm 2 mps 678 mmHg 25%
    15:00 +19°C° 0 mm 2 mps 677 mmHg 25%
    16:00 +17°C° 0 mm 2 mps 677 mmHg 31%
    17:00 +15°C° 0 mm 1 mps 676 mmHg 38%
    18:00 +13°C° 0 mm 1 mps 676 mmHg 44%
    19:00 +13°C° 0 mm 1 mps 676 mmHg 46%
    20:00 +12°C° 0 mm 1 mps 676 mmHg 49%
    21:00 +10°C° 0 mm 0 mps 676 mmHg 51%
    22:00 +11°C° 0 mm 1 mps 675 mmHg 51%
    23:00 +11°C° 0 mm 1 mps 675 mmHg 51%

    25 February, Tuesday

    Time Temperature Precipitation Wind Pressure Humidity
    00:00 +10°C° 0 mm 1 mps 675 mmHg 50%
    01:00 +10°C° 0 mm 1 mps 674 mmHg 50%
    02:00 +9°C° 0 mm 2 mps 674 mmHg 49%
    03:00 +9°C° 0 mm 2 mps 673 mmHg 49%
    04:00 +8°C° 0 mm 2 mps 673 mmHg 49%
    05:00 +8°C° 0 mm 2 mps 673 mmHg 49%
    06:00 +8°C° 0 mm 2 mps 673 mmHg 49%
    07:00 +10°C° 0 mm 2 mps 674 mmHg 42%
    08:00 +14°C° 0 mm 2 mps 675 mmHg 36%
    09:00 +16°C° 0 mm 2 mps 676 mmHg 30%
    10:00 +17°C° 0 mm 2 mps 676 mmHg 27%
    11:00 +18°C° 0 mm 3 mps 676 mmHg 24%
    12:00 +19°C° 0 mm 4 mps 676 mmHg 21%
    13:00 +19°C° 0 mm 4 mps 675 mmHg 21%
    14:00 +19°C° 0 mm 4 mps 674 mmHg 22%
    15:00 +19°C° 0 mm 4 mps 674 mmHg 22%
    16:00 +17°C° 0 mm 3 mps 673 mmHg 26%
    17:00 +14°C° 0 mm 3 mps 673 mmHg 31%
    18:00 +13°C° 0 mm 2 mps 672 mmHg 35%
    19:00 +12°C° 0 mm 2 mps 672 mmHg 38%
    20:00 +12°C° 0 mm 1 mps 672 mmHg 40%
    21:00 +11°C° 0 mm 1 mps 672 mmHg 42%
    22:00 +10°C° 0 mm 1 mps 672 mmHg 45%
    23:00 +10°C° 0 mm 1 mps 672 mmHg 48%

    26 February, Wednesday

    Time Temperature Precipitation Wind Pressure Humidity
    00:00 +9°C° 0 mm 1 mps 672 mmHg 51%
    01:00 +9°C° 0 mm 1 mps 671 mmHg 53%
    02:00 +8°C° 0 mm 1 mps 671 mmHg 56%
    03:00 +8°C° 0 mm 1 mps 670 mmHg 58%
    04:00 +8°C° 0 mm 1 mps 670 mmHg 59%
    05:00 +8°C° 0 mm 1 mps 670 mmHg 60%
    06:00 +8°C° 0 mm 1 mps 670 mmHg 60%
    07:00 +9°C° 0 mm 1 mps 671 mmHg 51%
    08:00 +11°C° 0 mm 1 mps 672 mmHg 43%
    09:00 +13°C° 0 mm 1 mps 673 mmHg 34%
    10:00 +14°C° 0 mm 1 mps 673 mmHg 31%
    11:00 +15°C° 0 mm 2 mps 673 mmHg 28%
    12:00 +16°C° 0 mm 2 mps 673 mmHg 25%
    13:00 +17°C° 0 mm 3 mps 673 mmHg 27%
    14:00 +17°C° 0 mm 3 mps 672 mmHg 28%
    15:00 +17°C° 0 mm 4 mps 672 mmHg 30%
    16:00 +14°C° 0 mm 4 mps 672 mmHg 37%
    17:00 +13°C° 0 mm 3 mps 672 mmHg 44%
    18:00 +11°C° 0 mm 3 mps 671 mmHg 51%
    19:00 +10°C° 0 mm 2 mps 672 mmHg 59%
    20:00 +10°C° 0 mm 2 mps 672 mmHg 67%
    21:00 +10°C° 0 mm 1 mps 672 mmHg 75%
    22:00 +9°C° 0 mm 1 mps 672 mmHg 78%
    23:00 +9°C° 0 mm 1 mps 672 mmHg 80%
    Show more